Location: Góry Miechowskie
(50.3599°N, 20.1803°E)
Time: 17:57:09
(UTC+00:00)

Cosmos 2228 - Pass Details

Date: 22 September 2024
Orbit: 574 x 600 km, 82.5° (Epoch: 12 October)

Event Time Altitude Azimuth Distance (km) Brightness Sun altitude
Exits shadow 00:15:30 19° 40° (NE) 1,447 5.6 -34.8°
Drops below altitude 10° 00:16:59 10° 27° (NNE) 1,947 6.4 -34.7°
Sets 00:19:21 0° 18° (NNE) 2,859 7.4 -34.5°
